Wind_Speed
65 64 62 58 56 54 54 55 55 54 53 51 48 45 44 44 45 46 45 44 48 53 56 59 65 71 73 76 83 87 86 86 85 82 80 77 75 72 69 66 63 61 62 63 63 64 65 65 64 63 62 61 61 61 59 56 53 51 48 47 45 46 48 49 48 47 48 48 48 49 49 49 46 43 39 35 32 30 26 24 26 27 26 27 28 30
62 59 55 53 52 52 53 54 53 51 49 48 45 43 42 41 41 42 41 40 44 49 53 57 63 69 72 72 77 83 86 87 87 85 83 81 79 77 74 70 67 66 64 64 66 67 67 67 67 65 63 64 66 66 64 62 59 55 52 51 49 48 50 51 50 48 48 46 46 47 47 46 45 44 39 35 32 29 26 23 22 24 26 27 29 30
56 53 50 50 51 52 52 51 49 47 47 46 44 40 38 37 37 38 39 37 40 46 49 53 59 65 69 71 72 78 83 86 87 87 85 84 82 80 78 74 71 69 67 67 68 69 70 71 70 67 65 66 68 70 68 65 62 59 56 55 54 52 52 52 52 50 48 46 46 46 46 45 45 44 39 35 32 30 28 25 21 21 24 27 29 31
50 49 48 49 51 51 50 47 46 45 44 43 41 37 34 33 34 36 37 34 35 42 46 50 54 60 65 69 71 73 78 83 86 87 87 86 85 83 80 77 74 72 71 69 71 72 73 73 72 70 70 68 68 69 69 67 65 62 58 58 57 55 53 53 53 51 49 47 47 47 46 45 45 44 40 36 35 33 31 27 23 22 23 25 28 30
46 46 47 49 50 49 47 44 42 43 42 40 38 34 31 30 30 33 34 31 31 38 43 46 50 55 61 66 69 71 73 79 83 86 87 87 86 85 83 80 77 75 74 72 73 75 76 75 74 73 73 72 69 69 70 71 69 64 60 59 58 56 54 54 54 52 51 50 49 49 47 46 45 44 42 39 37 36 33 30 27 23 22 23 26 29
44 45 46 47 47 46 44 42 41 40 39 37 35 32 29 27 27 29 30 29 29 34 40 43 46 51 57 63 67 69 71 74 79 83 86 88 88 87 85 83 80 78 77 75 74 76 78 78 77 75 75 75 73 71 71 72 71 66 61 59 58 57 55 55 54 52 52 51 51 51 48 46 45 45 44 42 41 38 35 32 28 23 21 24 26 28
44 45 45 44 43 43 41 40 40 39 36 34 32 30 28 26 25 25 26 27 27 31 36 40 43 47 54 60 64 67 69 71 73 78 82 86 87 87 87 85 83 81 79 78 76 77 80 81 80 78 75 75 75 73 72 71 70 66 61 59 59 58 56 55 53 51 52 52 52 52 50 47 45 46 46 44 43 39 35 33 30 26 24 25 25 26
43 43 42 41 40 39 39 39 40 38 36 32 29 28 27 26 24 23 23 24 25 27 31 36 40 44 50 56 61 65 68 69 69 71 76 81 84 86 86 86 84 82 81 80 78 78 81 83 83 81 78 76 76 74 72 71 70 67 62 59 57 56 54 50 45 46 50 53 53 53 50 48 46 47 47 46 44 40 37 36 34 31 29 26 24 25
42 41 40 38 37 37 38 39 39 38 35 31 28 26 25 24 23 22 21 22 23 23 26 33 37 41 46 53 58 63 67 69 69 68 70 75 80 82 84 85 84 83 82 81 79 79 81 83 84 84 81 78 76 75 72 70 70 68 64 60 57 55 52 47 44 47 51 53 54 54 51 49 47 46 47 46 44 43 41 40 38 34 32 30 27 24
40 38 37 36 35 36 37 37 38 36 34 31 27 25 24 23 21 20 20 20 20 20 22 29 35 40 45 51 57 61 65 68 69 67 67 70 75 79 81 83 84 84 83 82 81 79 80 83 84 85 83 80 78 75 72 70 69 68 64 61 58 56 55 53 51 54 56 54 54 54 52 51 48 46 46 46 44 44 43 43 41 37 35 34 32 27
38 35 35 35 35 36 36 37 37 35 32 29 26 23 22 21 19 19 19 19 19 18 20 26 33 38 43 49 55 59 63 67 68 67 65 65 70 74 78 80 82 83 83 83 82 81 81 82 84 86 86 83 79 76 73 69 68 66 64 61 57 55 56 58 57 56 57 55 53 54 54 52 50 48 46 46 44 44 44 44 43 40 39 36 34 32
35 32 33 34 35 36 37 36 36 33 30 27 24 21 20 18 18 18 18 18 17 17 18 24 30 35 40 45 51 56 60 63 65 65 63 62 64 68 73 77 80 82 83 83 83 82 82 82 84 87 88 86 83 79 74 71 68 65 63 61 56 51 51 56 59 57 54 52 51 53 54 53 52 50 47 45 44 43 44 44 44 43 41 38 36 35
32 30 32 34 35 36 36 36 34 31 28 25 22 20 19 17 16 16 16 15 15 14 17 23 28 32 36 41 47 51 55 58 61 63 62 60 59 62 68 74 78 80 81 83 84 83 83 83 84 87 89 89 86 82 77 73 70 67 64 61 55 50 47 50 55 54 50 49 50 52 55 55 54 51 47 44 41 41 42 43 44 45 44 41 40 38
28 28 31 33 35 35 35 34 32 29 26 23 20 19 18 16 15 13 12 12 13 15 18 23 25 27 32 37 41 45 48 52 56 59 59 58 57 58 63 70 75 78 80 82 84 84 84 84 84 86 89 91 89 85 80 76 74 72 68 62 55 50 47 46 50 51 49 50 50 52 55 57 56 54 50 46 41 40 40 40 42 44 45 45 43 41
25 27 29 31 33 34 33 31 29 27 24 21 18 17 16 13 11 10 9 10 13 16 18 20 22 24 28 32 35 38 42 45 49 53 56 58 57 57 59 64 71 75 77 80 83 85 85 85 85 85 88 91 91 88 84 80 79 78 74 66 57 50 46 45 51 56 55 53 53 54 56 57 57 54 51 48 45 42 40 38 38 40 42 45 46 45
23 26 29 30 31 32 30 27 26 24 21 19 16 13 12 10 9 8 8 9 11 14 16 18 20 22 25 28 31 34 37 40 43 48 55 60 60 59 58 60 65 71 75 78 80 83 85 85 86 86 87 90 91 91 89 86 84 84 81 73 61 53 50 49 54 61 62 60 57 57 59 58 56 54 52 50 48 45 43 41 40 39 40 42 46 47
23 26 28 29 30 30 28 25 23 21 19 17 13 9 8 7 6 5 6 9 12 14 16 19 21 24 26 29 31 32 32 35 40 45 51 57 60 60 60 60 61 66 71 75 77 80 83 84 86 87 87 89 90 92 92 91 90 88 86 81 69 60 58 56 57 62 65 64 60 58 60 59 57 56 54 51 49 47 46 45 44 44 42 42 44 45
22 25 26 27 28 27 26 24 21 19 16 13 9 6 4 4 2 4 7 12 16 18 21 23 26 28 30 31 32 32 31 31 34 40 46 52 56 60 62 61 61 62 65 70 75 78 81 84 88 89 89 89 90 91 93 94 94 92 90 87 79 70 66 63 62 65 67 65 63 60 60 61 60 59 57 53 50 48 47 47 47 46 45 44 44 44
21 23 24 24 24 25 25 22 19 17 12 9 7 4 2 1 3 8 14 19 24 26 29 31 33 35 36 36 34 34 34 33 32 34 39 45 50 56 60 62 61 59 58 63 70 76 80 85 89 91 90 90 90 91 93 96 97 95 93 92 88 81 75 69 67 69 69 67 66 62 59 61 62 62 60 55 51 49 48 49 48 47 47 46 46 45
19 22 23 23 22 23 24 21 17 15 10 7 5 2 1 3 8 14 21 27 31 34 36 38 39 40 40 39 37 36 37 38 35 33 35 39 43 49 56 59 60 57 56 58 64 71 77 82 87 89 90 90 90 90 93 96 98 97 95 94 93 88 83 77 72 72 71 69 68 65 61 62 64 64 62 57 53 52 51 51 49 48 48 48 47 47
18 20 21 21 21 22 23 20 16 12 9 6 3 0 3 8 14 18 25 32 35 38 40 41 42 42 42 41 40 39 37 38 37 34 35 37 39 43 49 54 57 58 58 58 60 66 73 80 84 87 89 90 91 91 92 95 97 97 96 96 95 91 88 83 77 73 73 70 69 66 62 63 65 65 64 60 56 54 54 52 50 48 49 49 50 49
15 18 19 19 20 21 22 20 16 12 9 6 2 3 6 14 20 21 26 33 37 40 42 44 44 43 42 42 42 41 39 39 39 36 35 37 38 41 44 49 53 57 60 60 61 63 69 77 81 84 87 90 91 92 93 94 95 96 96 96 96 93 90 87 80 74 73 72 70 67 65 65 66 66 65 61 58 56 55 53 50 48 48 49 51 51
13 16 17 17 19 19 20 19 17 13 9 6 4 5 8 16 23 24 27 33 37 41 44 45 46 44 42 42 44 44 43 43 43 41 37 36 37 39 43 47 50 54 58 61 63 64 67 73 77 81 84 87 91 93 93 94 95 95 96 97 97 95 92 88 82 76 75 75 73 70 67 67 67 67 66 62 59 59 56 54 52 50 49 50 52 53
12 14 16 16 17 18 18 18 17 14 10 7 8 7 7 14 22 25 27 31 35 40 42 43 44 44 42 42 44 46 46 45 45 44 41 39 38 40 43 46 48 52 56 60 63 65 67 70 74 79 81 83 88 92 94 94 95 94 96 98 98 97 95 91 85 78 76 77 76 72 70 69 68 68 68 65 62 61 59 56 55 53 52 53 54 55
10 12 14 16 17 17 16 16 16 16 13 10 10 10 8 11 19 24 26 28 32 36 39 40 41 41 40 39 40 43 44 43 45 45 43 43 43 43 45 47 48 51 55 59 63 65 67 68 71 75 79 80 83 89 93 94 95 95 96 98 99 98 96 94 89 81 77 78 78 74 71 71 71 70 70 67 64 64 62 61 60 57 56 58 58 58
8 11 13 15 17 16 16 16 16 17 17 14 11 11 11 11 15 21 23 24 28 32 34 34 35 35 35 33 33 34 35 38 42 44 44 44 44 45 45 45 47 51 54 58 61 64 65 66 67 71 75 78 81 86 91 94 95 95 96 97 98 98 97 96 93 86 81 79 79 76 73 72 72 71 71 69 67 66 66 65 64 63 62 62 62 59
7 10 12 14 16 17 16 16 16 18 19 18 15 13 13 13 13 17 19 21 23 26 27 27 26 25 24 24 23 21 21 24 29 35 39 41 42 43 43 43 44 48 52 55 59 62 63 64 64 66 70 74 79 84 88 91 93 95 96 97 98 98 98 97 95 91 86 82 80 78 75 74 74 73 72 72 69 69 69 68 67 67 66 65 64 61
6 8 11 13 14 16 16 16 16 17 19 20 19 17 16 16 15 15 17 18 19 19 20 19 19 18 16 14 14 13 12 13 16 21 26 31 35 38 38 38 38 40 44 49 54 58 61 63 63 63 65 70 76 81 85 88 91 93 95 96 98 98 98 98 95 93 92 88 83 79 77 76 76 75 74 74 73 71 71 71 69 69 68 67 67 65
5 6 9 10 12 14 15 16 17 18 19 20 20 20 19 19 19 18 17 15 14 14 14 13 13 14 12 10 9 8 7 8 10 13 17 21 25 28 29 31 32 34 36 40 45 51 56 60 62 62 63 66 71 77 82 86 89 92 94 96 97 98 98 98 96 94 93 91 87 83 80 79 78 78 77 77 76 75 74 73 72 71 70 69 70 69
4 6 7 9 11 13 14 15 17 18 19 20 20 20 21 21 22 22 21 18 13 12 12 12 13 13 10 8 7 9 8 8 9 12 14 15 17 19 21 23 26 29 32 35 38 42 49 56 60 61 61 63 67 72 78 84 87 90 92 95 96 97 98 98 97 95 93 92 90 86 82 81 81 80 80 79 79 78 77 76 75 72 71 71 72 70
3 5 7 8 10 12 13 14 17 19 19 20 20 20 20 21 22 22 23 23 19 16 14 14 14 14 13 11 10 9 9 9 11 12 13 13 13 14 15 17 19 21 25 30 34 37 41 48 55 59 61 62 63 66 72 79 84 88 90 93 95 96 97 97 95 94 94 93 93 90 85 83 83 83 83 82 81 81 80 79 77 75 75 75 74 71
3 5 8 8 10 11 12 14 17 20 20 20 20 21 20 20 20 21 21 21 20 19 18 17 15 14 14 12 10 10 10 10 11 10 10 10 9 10 10 12 13 14 16 20 27 32 37 41 48 54 58 60 61 62 66 72 78 84 87 90 93 95 96 96 94 93 93 93 96 95 90 86 86 86 86 84 84 83 83 81 79 78 79 80 79 75
3 5 8 8 9 10 11 13 15 19 20 20 20 20 21 20 20 20 21 20 19 18 17 16 16 14 13 12 10 9 8 6 4 2 0 1 1 2 3 5 6 8 10 12 17 24 30 36 41 48 53 57 59 60 63 66 71 77 82 86 90 93 94 95 93 92 91 92 95 98 96 90 88 89 89 87 86 86 86 84 81 80 81 83 83 82
4 4 7 8 8 9 9 10 12 16 18 19 19 19 20 20 20 20 20 20 19 18 17 16 15 13 12 10 9 9 9 10 10 10 9 8 6 4 3 1 1 3 6 8 10 14 20 25 31 39 46 52 57 59 61 64 67 72 77 80 84 88 91 93 92 90 90 91 94 97 98 94 91 91 92 91 89 88 88 87 84 82 82 83 84 84
5 5 6 7 7 8 8 8 9 13 15 16 17 18 18 19 18 17 18 18 18 18 17 16 15 14 13 13 12 12 14 15 15 14 13 12 11 10 8 5 3 0 3 5 6 9 13 17 21 26 33 41 49 55 58 61 64 68 73 76 78 81 85 89 91 90 89 90 93 96 98 97 94 94 94 93 92 91 90 90 87 84 83 83 84 85
6 5 5 6 6 7 8 8 8 10 12 14 15 15 15 16 15 15 15 15 15 15 14 14 13 13 13 13 12 12 13 14 14 13 13 13 13 13 13 12 9 6 2 1 3 5 8 12 15 19 23 29 37 46 52 57 61 64 68 72 74 74 76 81 87 90 89 89 92 95 97 98 97 96 96 96 94 93 92 92 90 87 84 84 85 86
7 6 5 4 5 5 7 7 7 8 9 10 12 13 13 13 13 13 13 12 11 11 12 12 12 12 12 12 11 10 10 11 10 9 9 10 10 12 12 12 12 11 9 5 2 2 5 8 11 15 18 22 27 35 43 50 55 60 63 66 70 72 73 75 79 85 88 88 89 93 96 98 98 98 98 98 96 95 95 94 93 91 88 86 86 87
8 7 5 4 4 4 5 6 6 6 7 7 8 9 10 10 10 9 9 8 8 8 8 8 8 9 9 9 8 8 8 8 6 5 5 5 6 7 8 7 8 8 8 8 7 4 3 5 8 11 15 18 22 28 35 42 49 55 58 61 64 68 72 74 75 78 82 84 86 90 93 96 98 99 99 99 98 98 97 96 94 93 91 88 87 88
9 8 7 5 3 3 3 4 4 4 5 5 5 6 7 7 7 7 6 6 5 5 5 5 4 5 5 5 5 5 5 6 5 3 3 4 4 4 4 5 5 5 5 5 6 5 4 4 5 8 11 14 19 23 28 35 42 49 55 59 61 64 68 72 75 76 77 78 80 84 90 94 97 99 100 101 101 100 99 98 96 95 93 91 89 90
8 8 8 6 4 3 3 3 3 3 3 2 2 2 3 3 3 3 3 3 3 2 2 1 1 2 2 2 2 2 3 4 3 2 2 3 4 5 6 7 7 8 7 7 7 7 6 6 6 8 9 12 15 19 23 28 34 40 47 53 58 61 64 68 72 75 77 77 77 79 84 90 94 97 99 101 102 102 101 100 99 97 95 93 92 92
8 8 8 7 6 4 3 2 2 2 1 1 1 1 2 1 2 1 1 2 1 1 1 2 3 3 4 4 5 5 5 5 5 5 5 6 6 7 8 8 9 9 9 9 10 10 10 9 9 10 11 13 15 17 20 24 28 33 38 43 48 53 58 61 64 68 71 75 76 77 80 84 89 93 97 100 102 103 102 102 101 99 96 95 94 94
8 9 9 8 7 5 3 3 2 1 0 1 1 2 3 4 4 5 6 6 6 6 6 6 7 7 7 8 8 8 9 8 8 9 9 10 10 10 11 11 11 11 11 12 12 12 12 12 12 13 13 14 15 16 18 21 24 28 32 36 41 45 50 54 57 61 64 68 73 76 78 81 84 88 92 96 100 103 104 103 102 100 99 97 97 97
9 10 10 9 8 6 4 3 2 1 1 2 2 2 3 4 5 6 7 7 7 8 8 8 9 9 9 9 10 10 11 11 11 12 12 13 13 14 14 15 15 15 15 16 15 15 15 15 15 15 15 16 17 17 18 20 22 25 28 31 35 39 44 48 51 55 59 63 68 73 78 81 83 85 88 91 95 100 103 104 103 102 101 100 99 99
10 11 11 10 8 7 6 4 3 2 1 1 2 3 3 3 4 5 5 6 6 6 7 7 8 9 9 10 11 11 12 13 13 14 14 15 15 16 17 17 17 18 18 18 18 18 18 18 19 19 19 19 20 20 20 21 22 24 26 28 31 34 38 42 45 49 53 57 62 67 73 79 83 85 86 88 91 95 99 103 104 104 104 102 101 101
11 11 10 10 9 8 7 7 6 6 6 6 7 7 8 8 8 8 7 7 6 6 5 5 4 4 4 4 5 6 7 9 10 11 12 13 14 15 16 17 18 18 19 19 20 20 20 20 21 21 21 22 22 23 23 24 25 26 26 28 30 32 34 37 40 44 47 51 55 60 65 72 78 82 85 87 89 91 94 98 102 105 106 105 104 103
15 14 14 14 14 14 15 15 16 17 18 18 19 19 19 19 19 18 18 17 17 16 15 14 13 12 12 11 10 9 8 6 6 5 5 5 5 6 7 9 10 12 14 16 17 19 20 21 23 23 24 25 25 25 26 26 27 28 29 30 31 32 34 36 38 40 44 47 51 55 59 65 71 77 82 86 88 89 91 94 97 101 104 106 107 107
22 23 23 23 23 24 24 24 25 25 25 25 25 24 23 23 22 22 22 21 20 20 19 18 18 17 16 16 16 15 14 13 13 12 11 11 10 9 8 7 6 6 6 7 8 10 12 15 17 19 22 24 26 27 28 28 29 30 31 31 32 33 35 36 38 39 42 45 48 52 56 60 65 70 76 81 86 89 91 93 94 97 99 102 104 106
27 27 28 28 27 27 27 26 26 26 25 25 24 24 23 23 23 22 22 21 20 20 19 18 18 17 17 17 16 16 15 14 14 13 13 12 12 11 10 10 9 8 8 7 6 6 6 7 9 11 13 16 19 22 24 27 29 31 32 33 34 34 35 37 38 40 42 44 46 49 53 56 60 64 69 74 79 84 88 91 93 95 97 98 100 102
27 27 27 26 26 26 26 25 25 24 23 23 22 22 22 22 22 21 21 20 19 19 18 17 17 17 16 16 15 15 14 14 13 13 13 12 12 11 11 10 10 9 9 8 7 7 7 7 7 8 10 12 13 15 18 20 23 26 29 32 33 35 36 37 38 40 41 44 46 48 51 54 58 61 64 68 72 76 81 85 89 92 94 97 98 100
24 24 24 24 24 23 23 23 22 22 21 21 21 21 21 21 20 19 19 18 17 16 16 15 15 14 14 14 13 13 13 12 12 12 12 11 11 10 10 10 10 9 9 9 9 9 9 9 9 9 10 12 13 14 15 17 18 20 23 26 29 32 34 36 38 39 41 42 44 47 49 52 55 58 61 65 68 71 75 79 83 86 89 92 95 98
21 21 21 21 21 21 20 20 20 20 19 19 19 19 19 18 17 16 16 15 14 14 13 13 12 12 12 11 11 11 11 11 11 11 11 10 10 10 10 10 11 11 11 11 11 11 11 12 11 11 11 12 13 14 16 17 18 18 19 21 23 26 29 32 35 38 40 42 43 45 47 49 52 55 58 61 64 68 71 75 78 81 84 88 91 93
Wind_Direction
298 298 298 297 296 295 295 294 293 291 290 287 285 282 278 273 267 263 258 252 246 242 238 233 229 228 228 227 226 225 224 225 224 223 222 222 222 220 219 218 217 217 219 215 210 210 213 214 214 213 211 209 208 207 205 205 210 215 218 220 220 218 217 216 217 219 220 222 223 225 228 229 231 233 234 234 234 237 243 248 247 242 235 229 226 225
299 298 298 297 297 297 297 296 294 292 291 290 288 285 280 275 269 263 258 250 245 240 236 232 228 226 227 226 225 224 223 223 223 222 221 221 221 221 218 216 215 215 216 214 210 208 210 213 214 213 213 212 211 210 207 207 211 215 217 219 220 219 218 217 217 218 219 222 224 226 228 230 231 232 232 231 230 233 239 248 252 246 239 233 228 226
299 299 299 299 299 299 298 296 295 294 293 291 290 287 282 276 270 264 258 250 243 240 236 231 228 226 226 225 224 223 222 222 222 221 220 220 220 220 219 215 213 214 215 213 210 207 207 211 213 213 213 213 213 213 210 209 212 216 219 220 220 219 218 218 218 218 219 222 225 226 228 229 230 231 230 227 226 228 235 242 246 243 239 235 230 226
300 300 301 302 301 300 298 297 297 296 294 293 292 289 283 278 273 266 259 251 243 241 237 231 228 225 224 225 223 222 221 221 221 221 220 219 219 219 219 216 213 212 213 212 210 207 206 208 211 211 213 214 215 216 213 213 215 217 219 221 220 218 217 217 217 217 219 221 224 226 228 229 229 229 227 224 223 225 230 234 237 239 242 239 233 227
301 302 304 304 301 300 299 299 299 298 297 295 293 289 284 280 277 270 263 255 244 240 237 231 227 225 223 224 223 221 220 220 219 220 220 219 218 218 218 217 213 212 212 212 210 208 206 206 208 210 212 214 215 217 217 217 218 219 220 221 220 219 217 217 217 217 219 221 223 225 227 229 229 228 226 223 223 225 226 229 233 238 244 245 238 229
303 305 306 303 301 300 301 302 302 301 299 297 295 292 287 283 279 274 267 259 247 238 236 231 226 224 223 222 222 221 220 219 218 219 219 219 218 217 217 216 214 211 211 212 210 208 206 206 206 208 211 213 214 217 218 218 219 220 221 222 221 220 218 217 218 219 220 222 223 224 225 227 228 226 226 225 225 225 226 230 234 238 244 245 240 232
306 307 305 302 301 301 303 306 306 304 302 299 297 295 291 286 283 277 269 260 249 237 233 230 224 221 221 221 221 221 220 220 219 218 219 219 218 217 217 216 214 211 211 211 210 208 207 206 206 207 210 212 213 215 218 219 219 219 220 221 221 221 219 218 219 222 224 224 225 226 225 227 227 226 225 227 227 225 226 231 235 238 240 239 239 236
308 307 304 302 302 303 306 308 308 307 305 302 298 295 292 289 286 281 271 259 248 236 228 228 224 220 219 220 220 219 219 220 220 219 219 219 219 217 216 216 214 211 210 211 211 209 207 206 206 206 207 211 212 214 216 218 218 217 218 220 221 220 218 218 221 226 230 229 227 228 228 227 228 226 225 226 226 225 226 231 233 235 236 234 236 239
309 307 304 303 304 307 310 310 310 309 307 305 303 298 294 291 287 281 271 259 248 236 223 222 222 218 216 217 218 218 218 219 220 220 219 219 219 218 217 216 215 211 209 209 210 210 209 207 207 207 207 209 212 213 214 216 216 215 217 220 222 219 213 212 218 223 228 231 229 228 229 229 228 227 226 226 226 225 227 231 233 233 234 234 234 239
310 307 304 305 308 310 312 313 312 311 309 307 305 301 296 292 286 279 270 258 246 233 219 217 218 216 213 214 215 216 217 218 219 219 218 218 219 218 217 216 215 212 209 208 209 210 210 208 207 208 208 209 211 212 213 215 215 215 218 220 222 220 211 207 213 219 222 227 229 228 228 230 230 229 227 226 226 226 227 231 234 234 235 235 235 237
311 307 305 308 311 313 315 315 313 311 309 307 304 299 294 288 281 274 266 256 243 229 215 213 215 214 212 212 214 215 216 217 218 219 219 219 218 218 217 216 215 213 210 208 208 209 210 209 208 208 209 209 210 212 212 213 215 216 218 219 219 219 213 208 211 217 220 224 227 226 226 229 229 229 228 226 226 227 229 233 236 237 237 237 236 236
311 308 307 311 314 316 317 316 313 312 309 305 302 297 290 284 277 268 261 253 242 227 213 211 212 212 211 212 213 214 215 217 218 218 219 219 219 219 218 217 215 213 211 208 207 208 210 210 209 208 209 209 209 210 211 212 213 214 216 218 217 216 214 212 211 213 219 226 229 227 226 228 228 228 228 228 226 227 230 235 238 239 240 239 238 237
312 309 310 313 316 317 318 317 315 314 310 306 304 299 291 283 276 267 259 250 239 223 209 210 211 209 209 211 213 214 215 216 218 218 219 219 219 219 219 218 217 215 212 209 207 207 209 210 210 209 209 210 210 210 211 211 211 212 215 217 217 215 214 214 212 211 217 226 231 232 231 229 228 226 227 228 228 230 234 238 241 243 243 242 241 239
309 308 311 314 317 318 318 318 318 316 313 310 307 302 295 287 281 272 259 244 229 213 205 205 206 204 205 209 211 214 216 217 218 219 220 220 220 220 219 219 219 217 214 210 208 207 208 210 211 211 209 210 210 210 210 211 211 211 214 216 216 214 212 211 210 212 218 224 228 233 234 232 229 226 224 224 226 230 235 240 245 248 249 247 245 243
306 308 312 315 317 318 319 320 319 317 315 313 311 306 301 293 282 265 246 231 216 207 202 199 197 196 199 203 206 211 215 216 218 219 220 221 221 220 220 220 220 219 217 213 210 208 208 209 211 212 211 210 210 210 210 211 211 211 213 215 214 211 209 208 209 210 213 217 222 226 229 231 230 227 225 223 222 225 228 232 239 247 251 251 249 246
307 310 314 317 318 319 321 323 321 318 316 314 316 312 303 292 273 250 228 213 203 197 191 185 184 184 187 191 195 202 209 213 216 218 219 221 221 221 220 220 220 220 220 216 212 210 209 209 210 212 213 211 210 210 211 212 213 213 213 214 213 210 209 210 212 212 211 212 216 221 224 226 227 227 227 225 222 222 224 225 228 234 241 246 247 246
309 312 316 320 320 321 327 329 323 320 316 314 319 318 305 290 263 230 198 186 180 176 173 170 171 172 173 178 181 187 195 204 211 214 217 220 221 221 221 220 220 219 219 219 216 212 210 210 211 212 214 213 211 210 211 213 214 214 214 214 213 213 215 217 218 216 213 211 214 219 222 222 222 223 225 224 223 222 223 224 226 230 234 239 244 244
309 313 318 322 323 327 334 334 324 319 317 317 326 330 311 299 244 168 162 162 158 156 155 154 156 158 160 163 167 171 177 187 201 210 215 218 219 221 222 220 219 218 217 217 218 215 212 212 212 212 213 214 212 211 210 213 215 215 216 216 215 215 219 222 222 219 215 212 212 217 220 219 218 220 221 222 222 222 224 225 227 231 235 240 244 244
309 315 321 324 328 335 340 337 326 319 317 321 333 339 327 353 135 144 146 147 146 146 146 147 149 151 152 154 159 165 171 176 186 201 210 214 217 220 222 222 220 219 216 216 217 217 215 214 213 211 212 213 213 212 211 213 215 216 217 218 218 218 219 222 223 221 217 213 213 215 217 216 215 217 218 219 219 220 223 225 226 229 233 238 244 246
313 321 326 331 337 342 344 342 332 324 320 324 338 344 40 121 144 151 149 147 146 147 147 149 150 151 153 156 160 167 174 178 182 191 201 207 212 217 221 223 221 219 218 216 216 217 218 218 215 212 211 213 213 213 212 213 215 217 219 220 220 219 220 221 221 221 217 214 214 215 215 214 213 214 216 216 217 218 221 225 226 228 232 236 240 244
321 328 330 336 345 349 348 349 345 338 333 338 352 88 131 143 156 158 155 153 152 153 153 152 153 155 158 162 165 169 175 181 183 188 196 200 205 212 217 221 221 219 218 217 216 216 218 219 218 214 212 212 213 214 214 214 215 218 220 221 221 220 220 221 220 219 216 214 214 215 214 213 212 212 214 215 216 217 220 224 226 228 232 236 238 241
327 332 334 344 353 353 353 356 356 356 358 6 40 145 149 155 164 166 162 160 159 157 157 156 157 160 164 166 169 172 176 182 184 187 194 199 204 209 212 216 219 218 217 217 216 216 217 219 219 216 213 212 213 213 214 215 216 218 221 222 223 221 220 220 219 218 215 214 215 215 213 212 212 210 212 214 214 216 219 221 223 226 231 237 240 241
332 339 344 355 360 358 359 3 4 6 13 33 77 131 154 163 170 173 170 167 165 163 163 164 165 167 169 171 174 176 181 186 188 189 192 197 203 208 211 213 215 217 217 216 216 216 217 218 218 217 215 212 213 213 213 215 216 218 221 222 223 222 221 220 218 216 215 214 215 214 212 211 211 210 211 213 214 216 218 219 222 225 229 235 240 243
344 348 354 4 6 4 6 11 13 15 22 50 84 110 150 169 174 177 178 175 173 172 172 173 173 173 175 177 180 185 187 189 191 192 193 195 199 206 211 212 213 216 216 217 217 217 218 218 217 218 217 214 213 213 213 214 215 217 220 221 222 222 222 220 218 216 215 215 216 215 212 211 210 210 211 213 214 215 217 220 223 226 227 231 237 242
356 357 3 13 14 12 14 18 25 29 33 53 84 100 126 164 177 180 182 182 180 179 180 181 180 181 183 186 189 193 194 194 196 198 199 201 204 208 212 212 212 215 216 217 218 219 219 219 217 217 217 216 214 213 213 214 215 217 219 221 222 222 222 221 219 217 216 216 217 216 213 211 211 210 211 212 213 214 217 220 223 224 226 228 232 236
6 6 15 24 23 20 22 25 34 42 45 53 74 94 108 136 170 182 185 187 186 186 188 190 190 191 194 198 203 204 205 207 207 207 208 210 211 214 218 216 214 215 217 218 220 221 222 222 219 218 218 217 215 215 214 214 215 217 219 221 221 222 222 222 220 218 218 218 218 216 214 213 211 211 211 212 213 214 216 219 222 223 224 226 229 232
21 20 26 33 31 29 30 31 38 48 54 57 64 79 96 113 147 177 187 191 193 194 198 200 203 206 209 213 220 225 230 231 227 222 220 219 219 221 225 225 222 221 221 222 222 223 224 225 223 221 219 219 218 216 215 215 215 217 219 221 222 222 222 222 221 220 219 220 219 217 215 214 212 211 212 212 213 215 217 219 222 223 224 225 227 230
37 36 38 42 40 35 35 38 42 50 58 62 65 70 81 97 120 152 173 184 192 198 204 209 214 220 227 236 247 258 266 260 250 242 236 232 231 233 236 237 237 234 232 230 228 227 226 226 226 224 222 221 220 218 216 216 216 218 219 221 222 223 222 222 221 220 220 222 222 218 215 214 213 212 213 213 213 215 217 219 222 223 224 226 227 229
57 53 51 50 48 43 40 43 48 52 58 64 67 70 74 83 98 118 139 160 181 197 207 215 223 231 247 268 271 260 246 235 238 242 238 236 239 242 245 248 250 249 245 241 237 233 231 230 229 227 225 224 223 220 218 217 217 218 220 222 223 224 224 223 222 221 220 221 223 221 216 214 213 213 213 214 214 215 217 220 222 223 223 225 227 230
83 72 68 59 57 54 48 49 53 54 57 62 68 72 75 79 86 96 108 120 143 176 198 211 220 225 232 239 225 212 210 217 229 238 241 244 246 248 249 251 252 252 250 247 242 237 234 233 232 230 229 228 227 224 221 219 219 219 221 222 224 225 226 225 223 222 222 221 221 221 218 214 213 214 214 214 215 216 218 220 222 222 223 225 227 230
114 95 86 75 71 71 65 61 62 61 59 60 65 70 76 81 85 91 99 107 120 136 154 169 181 184 182 183 190 200 212 221 228 233 238 242 241 239 241 243 247 249 248 245 242 240 237 234 233 232 232 232 231 228 225 223 221 221 221 223 224 225 226 227 225 223 223 222 220 221 220 216 214 214 214 214 215 217 218 220 222 223 224 225 227 229
140 112 103 92 87 86 79 73 72 71 67 65 65 67 70 76 83 90 96 103 111 120 127 135 142 149 155 162 172 185 196 206 214 220 225 228 226 223 223 229 237 244 245 241 238 238 238 236 235 234 233 234 235 232 230 228 226 224 223 224 225 225 226 228 227 224 223 223 221 221 221 219 216 215 215 215 216 217 219 221 223 224 225 226 227 229
171 129 116 107 96 92 87 81 77 76 75 75 74 73 71 72 76 82 87 90 95 102 108 115 121 128 136 143 151 160 165 166 162 154 158 297 276 244 225 222 230 240 247 245 238 236 237 238 238 236 235 235 236 235 233 231 230 228 226 226 227 227 227 228 228 226 224 223 223 222 222 222 218 215 215 216 216 218 220 222 223 224 225 226 228 230
205 163 135 125 112 102 97 93 86 82 81 80 79 78 76 75 77 80 84 85 85 86 87 90 93 96 98 98 93 88 82 76 71 65 58 50 43 36 32 41 234 237 240 244 243 239 239 241 242 241 239 237 236 235 233 232 232 231 230 229 229 229 229 229 228 227 225 224 223 223 223 223 220 216 215 217 218 219 221 222 223 224 226 227 229 231
217 198 160 143 135 124 117 111 102 96 93 89 86 82 78 76 76 78 81 82 82 83 84 83 81 78 74 71 70 74 76 71 65 61 60 56 52 48 45 46 50 150 209 220 235 240 242 244 246 247 246 242 238 237 235 233 233 233 232 232 232 232 232 231 230 229 227 224 223 223 223 223 222 219 217 217 219 220 222 223 223 224 226 228 229 231
221 215 188 162 154 145 135 129 119 108 104 100 97 95 90 85 80 76 74 74 75 79 81 81 79 75 70 66 66 72 77 74 66 59 56 54 51 48 42 37 33 30 42 175 205 228 238 243 246 248 250 248 242 239 237 235 234 234 234 234 235 236 235 234 232 231 229 227 224 223 223 223 223 221 219 219 220 222 223 224 225 225 225 227 230 231
218 218 213 190 177 167 152 144 134 123 117 109 105 104 103 99 93 86 81 75 71 70 70 69 67 64 61 60 58 56 58 65 70 68 60 56 55 53 48 41 33 24 15 8 351 228 224 232 239 242 246 249 247 243 239 238 236 236 235 236 237 239 239 238 235 234 233 231 228 224 223 223 224 224 222 221 222 223 224 225 226 227 227 227 229 231
212 211 216 213 201 191 173 158 149 141 135 126 116 111 108 104 100 98 94 89 81 73 67 63 61 58 56 56 55 44 31 36 49 54 44 43 51 55 52 50 42 31 18 8 359 340 274 235 229 231 234 238 242 243 242 240 238 237 237 238 239 240 240 240 239 238 237 236 233 229 226 224 225 225 225 224 224 224 225 226 227 228 229 229 230 231
210 205 210 215 216 209 193 178 173 167 155 143 132 126 120 112 106 103 100 96 91 84 73 65 57 50 50 50 48 37 14 7 15 26 16 7 12 14 7 360 360 4 8 4 353 337 313 278 247 235 231 230 231 235 237 239 239 239 239 240 240 241 241 241 242 241 240 239 238 234 230 227 226 226 226 226 226 227 227 228 228 229 230 231 231 232
210 202 203 207 209 211 203 193 193 191 183 171 155 138 132 129 121 112 104 97 95 93 81 53 11 360 356 354 357 360 345 333 324 315 319 326 325 319 319 321 324 331 335 333 327 318 305 289 271 253 242 236 231 231 232 234 236 238 240 241 241 241 241 242 242 243 243 242 241 238 234 230 228 227 227 227 227 228 229 230 230 231 232 232 233 233
198 194 192 195 201 198 183 177 188 199 211 221 245 292 305 301 297 308 337 341 328 300 283 277 276 281 287 289 288 290 291 289 283 276 273 278 286 292 296 299 303 308 311 311 310 310 306 301 292 279 267 255 245 237 234 232 233 235 237 239 241 241 242 242 243 244 244 243 242 240 236 233 230 229 229 228 228 229 230 231 232 233 233 234 234 234
173 173 173 180 190 189 170 151 144 149 327 335 327 307 303 299 295 293 295 297 294 287 282 279 278 281 283 283 283 284 285 285 283 279 277 277 280 283 284 287 292 296 299 300 299 298 297 295 293 290 284 277 267 257 248 241 236 234 234 235 237 239 240 241 242 243 244 243 242 240 237 235 233 231 231 230 230 230 231 232 233 234 235 235 236 235
152 154 157 164 172 171 158 136 120 119 320 330 330 310 298 289 285 282 280 281 283 281 280 278 279 282 283 282 282 283 282 283 283 283 283 282 282 283 284 285 287 289 291 293 293 293 292 291 290 288 286 283 279 273 266 258 250 243 238 236 235 236 237 239 240 241 241 242 241 240 239 238 236 234 233 233 232 232 232 233 234 235 236 236 237 237
132 138 140 143 144 140 133 126 118 118 107 344 330 324 322 315 311 310 305 302 300 296 292 290 287 286 286 284 283 282 281 281 281 281 282 282 282 282 283 283 285 285 286 287 288 288 289 289 289 288 286 285 283 280 276 272 266 258 252 246 242 239 237 238 239 240 240 241 241 240 240 239 239 238 237 236 235 235 234 235 235 236 236 237 237 238
109 116 119 119 117 112 107 103 94 87 80 73 68 65 63 61 58 54 51 46 43 41 35 25 13 356 342 325 309 300 293 289 288 286 285 284 283 283 282 282 282 282 283 283 283 284 285 285 285 284 284 283 281 280 278 275 273 269 265 260 255 250 245 242 240 240 240 241 241 241 241 240 240 240 239 239 238 238 237 237 237 237 237 238 238 238
95 98 99 98 96 94 92 91 89 88 87 85 83 82 81 79 79 77 77 76 75 74 72 71 71 70 69 66 63 58 53 47 40 29 14 357 338 321 309 300 293 289 286 283 282 281 280 279 279 279 278 278 278 277 277 275 274 272 269 267 263 259 255 251 247 244 242 241 241 242 242 241 241 241 240 241 240 240 240 239 239 239 239 239 239 240
89 92 93 93 93 93 93 92 91 90 88 87 85 84 83 81 81 79 78 76 75 73 72 71 69 68 67 65 63 61 58 57 56 54 52 50 46 41 35 27 14 356 338 320 307 297 290 285 282 279 278 277 276 275 275 274 273 272 271 269 267 264 262 258 255 251 248 244 243 242 242 242 241 241 241 242 242 242 242 241 241 241 240 240 241 241
90 91 92 92 92 92 91 90 88 86 85 84 82 81 79 77 75 73 70 68 66 64 62 61 59 59 57 56 54 52 51 49 48 47 46 45 43 40 37 34 32 27 21 13 3 348 333 320 309 299 292 287 283 281 279 277 275 273 271 270 268 266 265 263 260 257 254 251 247 245 244 243 242 242 242 242 243 243 243 243 243 242 242 242 242 242
89 89 90 90 89 89 88 87 86 84 83 82 80 78 75 72 69 66 64 61 59 56 53 50 48 47 46 45 44 42 42 40 39 37 36 34 31 28 26 23 21 18 14 9 5 360 353 346 337 327 318 309 303 297 292 288 284 280 277 274 271 268 266 265 263 261 258 256 253 250 248 246 245 244 244 244 244 244 244 244 244 244 244 243 243 243
87 87 87 86 86 85 85 84 83 82 79 77 74 70 67 64 61 58 56 53 51 49 46 44 41 38 35 33 32 31 30 29 28 27 26 22 19 15 13 10 7 3 359 357 354 351 346 342 337 332 325 319 315 311 306 301 296 292 287 283 279 275 271 268 265 263 261 259 258 255 253 251 249 247 246 245 245 246 246 246 246 245 245 245 245 245
87 86 85 84 83 81 80 77 75 72 67 64 60 57 55 53 52 51 50 48 46 44 41 39 37 34 30 25 22 22 21 20 18 16 12 8 4 1 359 357 355 351 349 347 346 343 339 335 331 328 324 320 318 317 314 310 306 302 299 295 291 286 281 276 271 268 265 262 260 259 257 255 254 252 250 249 248 247 247 248 248 248 248 247 247 247
Height
10537 10531 10527 10522 10518 10514 10509 10505 10501 10497 10493 10490 10488 10486 10483 10481 10480 10480 10481 10483 10482 10484 10488 10494 10496 10496 10500 10509 10516 10524 10533 10541 10550 10561 10570 10578 10586 10593 10600 10608 10614 10618 10624 10634 10644 10648 10651 10656 10661 10666 10670 10675 10679 10683 10687 10690 10692 10696 10701 10704 10707 10710 10714 10718 10721 10725 10729 10733 10736 10739 10741 10744 10747 10750 10753 10755 10756 10758 10760 10762 10763 10763 10765 10766 10769 10771
10527 10522 10518 10514 10510 10507 10502 10497 10493 10489 10485 10482 10480 10478 10475 10472 10471 10471 10472 10473 10472 10473 10478 10482 10485 10488 10492 10499 10506 10514 10524 10530 10538 10549 10559 10568 10575 10582 10590 10598 10606 10610 10616 10626 10636 10641 10645 10650 10655 10660 10665 10668 10672 10676 10680 10683 10687 10692 10696 10699 10702 10706 10709 10713 10717 10721 10726 10730 10733 10736 10738 10741 10743 10746 10749 10752 10755 10756 10758 10760 10761 10761 10762 10764 10767 10769
10518 10515 10511 10507 10503 10499 10495 10490 10485 10481 10478 10475 10472 10470 10467 10465 10463 10462 10463 10465 10465 10465 10469 10474 10478 10482 10486 10491 10497 10505 10514 10521 10528 10538 10548 10557 10565 10573 10580 10589 10597 10603 10608 10617 10626 10633 10638 10642 10648 10654 10658 10661 10664 10669 10674 10679 10683 10687 10690 10693 10697 10699 10704 10709 10714 10718 10723 10727 10729 10732 10735 10737 10740 10742 10746 10750 10752 10754 10755 10757 10758 10759 10760 10762 10764 10767
10512 10508 10505 10501 10495 10491 10487 10483 10479 10475 10471 10469 10466 10463 10461 10459 10456 10455 10455 10458 10460 10459 10462 10467 10471 10476 10479 10484 10490 10497 10505 10513 10520 10528 10537 10547 10555 10563 10572 10581 10588 10594 10601 10608 10616 10624 10630 10635 10641 10647 10651 10654 10659 10664 10670 10675 10677 10679 10683 10687 10691 10695 10700 10704 10709 10715 10720 10723 10726 10729 10732 10734 10737 10739 10743 10747 10748 10749 10751 10754 10755 10757 10758 10760 10762 10765
10506 10502 10499 10494 10488 10484 10480 10478 10474 10469 10465 10463 10460 10457 10455 10453 10451 10449 10449 10453 10455 10454 10456 10461 10465 10470 10473 10477 10483 10490 10497 10504 10511 10519 10527 10537 10546 10554 10563 10572 10580 10587 10593 10599 10607 10615 10622 10629 10635 10639 10642 10647 10653 10658 10662 10666 10669 10674 10679 10683 10689 10694 10698 10702 10706 10712 10716 10719 10722 10725 10729 10731 10734 10737 10740 10743 10744 10745 10748 10751 10753 10755 10758 10759 10761 10763
10501 10497 10493 10488 10482 10478 10475 10472 10468 10464 10460 10457 10454 10452 10450 10448 10447 10445 10445 10447 10449 10449 10451 10455 10460 10465 10468 10472 10476 10483 10490 10496 10503 10510 10518 10526 10536 10545 10553 10561 10571 10579 10585 10592 10599 10607 10615 10621 10627 10631 10636 10641 10647 10650 10654 10660 10665 10671 10677 10682 10687 10692 10696 10701 10705 10710 10713 10716 10719 10722 10725 10729 10731 10734 10737 10739 10740 10742 10747 10749 10751 10754 10757 10758 10759 10760
10496 10492 10487 10482 10477 10473 10470 10466 10462 10458 10455 10453 10450 10447 10445 10443 10443 10442 10441 10442 10443 10445 10447 10450 10454 10459 10463 10467 10471 10478 10485 10490 10496 10503 10510 10518 10527 10536 10544 10552 10561 10570 10578 10585 10592 10600 10607 10614 10620 10626 10631 10636 10640 10644 10650 10656 10663 10669 10675 10679 10683 10688 10695 10701 10708 10712 10713 10714 10716 10718 10722 10726 10728 10730 10732 10734 10737 10741 10745 10747 10750 10753 10754 10755 10757 10758
10491 10487 10481 10477 10473 10469 10466 10462 10457 10453 10450 10448 10445 10443 10441 10439 10438 10438 10437 10437 10437 10440 10444 10446 10450 10455 10459 10463 10467 10472 10478 10485 10491 10498 10505 10511 10519 10529 10537 10545 10553 10563 10571 10578 10586 10593 10600 10607 10613 10619 10625 10630 10635 10641 10646 10652 10657 10664 10669 10674 10679 10686 10697 10709 10718 10721 10717 10714 10714 10715 10719 10722 10724 10726 10728 10730 10734 10739 10742 10743 10746 10748 10751 10753 10754 10756
10486 10481 10476 10472 10469 10466 10462 10458 10453 10449 10446 10443 10441 10439 10437 10436 10435 10434 10433 10433 10434 10437 10441 10443 10446 10450 10454 10458 10462 10466 10471 10478 10485 10492 10499 10505 10513 10522 10530 10538 10546 10555 10564 10572 10580 10588 10595 10601 10608 10614 10620 10625 10630 10636 10641 10646 10651 10658 10664 10669 10675 10683 10698 10713 10719 10717 10712 10710 10711 10713 10715 10717 10720 10723 10725 10728 10732 10736 10738 10739 10742 10744 10747 10749 10751 10753
10481 10477 10472 10468 10465 10462 10458 10454 10449 10445 10442 10440 10438 10435 10434 10433 10432 10431 10430 10430 10431 10434 10437 10440 10442 10445 10449 10453 10456 10460 10466 10471 10478 10486 10493 10499 10506 10514 10523 10532 10540 10548 10557 10566 10574 10582 10589 10597 10603 10609 10615 10621 10626 10631 10637 10642 10647 10653 10659 10664 10670 10677 10691 10702 10705 10703 10702 10703 10706 10708 10710 10713 10717 10720 10723 10726 10729 10733 10735 10737 10738 10741 10743 10745 10748 10750
10477 10472 10468 10464 10461 10458 10455 10450 10446 10442 10439 10437 10435 10433 10431 10430 10429 10428 10427 10427 10429 10431 10434 10436 10438 10441 10445 10449 10452 10456 10460 10465 10472 10480 10488 10495 10501 10508 10517 10526 10534 10543 10552 10560 10568 10575 10583 10590 10598 10604 10610 10616 10621 10627 10633 10638 10643 10648 10654 10659 10665 10672 10681 10688 10692 10695 10698 10700 10702 10704 10706 10709 10712 10716 10719 10723 10726 10730 10732 10734 10736 10738 10739 10742 10744 10747
10472 10468 10464 10461 10458 10454 10451 10447 10443 10439 10436 10434 10432 10430 10428 10427 10426 10425 10425 10425 10427 10429 10432 10433 10435 10438 10443 10446 10450 10453 10457 10462 10468 10476 10484 10491 10498 10504 10512 10521 10528 10537 10546 10555 10563 10569 10576 10583 10591 10597 10603 10609 10615 10621 10628 10634 10639 10644 10649 10654 10660 10667 10673 10678 10683 10691 10697 10700 10702 10703 10704 10705 10707 10711 10715 10719 10723 10727 10729 10731 10733 10734 10736 10739 10741 10743
10468 10465 10461 10458 10455 10451 10448 10444 10440 10436 10433 10431 10429 10427 10425 10424 10423 10423 10423 10424 10425 10427 10429 10431 10433 10437 10441 10445 10448 10451 10456 10460 10466 10473 10480 10487 10495 10502 10509 10515 10522 10530 10539 10548 10556 10564 10570 10577 10583 10590 10596 10603 10609 10615 10622 10628 10634 10640 10644 10649 10655 10660 10664 10669 10678 10688 10694 10698 10703 10704 10702 10702 10703 10706 10710 10714 10720 10725 10727 10729 10730 10731 10733 10735 10737 10738
10466 10463 10459 10456 10452 10449 10446 10442 10438 10434 10431 10428 10426 10425 10423 10422 10422 10422 10422 10423 10424 10425 10426 10428 10431 10436 10440 10443 10447 10451 10456 10461 10466 10471 10478 10485 10493 10500 10505 10511 10516 10523 10531 10540 10549 10557 10564 10571 10577 10583 10590 10596 10603 10610 10617 10623 10628 10633 10637 10642 10648 10653 10658 10666 10677 10685 10687 10691 10697 10700 10699 10699 10700 10702 10705 10708 10712 10717 10722 10725 10727 10728 10729 10731 10732 10734
10464 10461 10458 10454 10450 10447 10444 10440 10436 10432 10429 10427 10425 10423 10422 10420 10420 10420 10420 10421 10422 10423 10425 10428 10431 10435 10438 10442 10447 10452 10456 10461 10466 10471 10477 10482 10488 10495 10501 10506 10510 10516 10524 10533 10541 10549 10557 10564 10570 10577 10583 10589 10596 10604 10611 10616 10620 10624 10629 10634 10640 10645 10651 10660 10666 10668 10670 10673 10679 10684 10688 10691 10695 10699 10701 10703 10705 10707 10711 10716 10720 10724 10725 10726 10727 10729
10462 10459 10456 10453 10449 10445 10442 10438 10434 10431 10428 10425 10424 10422 10420 10419 10419 10419 10419 10420 10422 10423 10426 10428 10431 10434 10437 10442 10446 10451 10456 10460 10465 10469 10473 10477 10482 10489 10495 10500 10505 10511 10518 10526 10535 10543 10551 10558 10564 10570 10576 10582 10589 10597 10603 10608 10612 10616 10621 10626 10632 10637 10642 10647 10650 10651 10655 10660 10666 10671 10677 10682 10688 10693 10696 10699 10701 10702 10703 10706 10710 10713 10716 10718 10720 10723
10459 10457 10454 10451 10448 10444 10440 10437 10433 10430 10427 10425 10423 10422 10420 10419 10418 10418 10419 10420 10422 10424 10426 10428 10430 10433 10437 10440 10444 10449 10454 10458 10462 10465 10468 10472 10478 10483 10488 10493 10499 10504 10510 10519 10528 10537 10546 10552 10558 10562 10568 10574 10581 10589 10595 10599 10603 10608 10613 10618 10625 10630 10633 10636 10639 10643 10649 10654 10659 10664 10668 10675 10680 10684 10688 10692 10695 10697 10698 10701 10703 10706 10709 10711 10713 10717
10458 10455 10453 10450 10446 10443 10439 10435 10431 10429 10426 10424 10423 10421 10420 10419 10419 10419 10419 10421 10422 10424 10426 10428 10431 10433 10436 10440 10443 10447 10451 10455 10459 10462 10464 10469 10474 10478 10482 10487 10492 10497 10504 10513 10520 10528 10536 10541 10546 10552 10558 10565 10572 10580 10587 10591 10595 10600 10605 10611 10617 10622 10625 10628 10631 10635 10641 10647 10652 10657 10662 10668 10673 10676 10681 10685 10689 10692 10695 10697 10700 10703 10706 10708 10709 10713
10457 10454 10452 10449 10446 10441 10438 10434 10430 10428 10426 10424 10422 10421 10420 10420 10420 10420 10420 10422 10423 10425 10427 10428 10430 10433 10436 10439 10443 10446 10448 10451 10455 10459 10462 10467 10471 10475 10478 10482 10488 10494 10501 10508 10514 10520 10526 10530 10535 10542 10550 10557 10564 10571 10578 10582 10587 10593 10598 10603 10608 10613 10617 10620 10623 10628 10633 10639 10644 10650 10655 10660 10666 10670 10675 10680 10684 10687 10690 10692 10695 10699 10703 10705 10707 10710
10456 10453 10451 10448 10445 10441 10437 10433 10430 10427 10425 10423 10422 10421 10421 10421 10421 10421 10421 10423 10424 10425 10427 10428 10430 10432 10435 10438 10441 10445 10448 10450 10453 10456 10460 10464 10468 10472 10475 10479 10485 10492 10498 10504 10509 10515 10520 10524 10530 10538 10546 10552 10558 10564 10570 10574 10579 10585 10590 10595 10600 10605 10609 10612 10616 10621 10626 10632 10638 10644 10649 10654 10660 10665 10670 10675 10678 10681 10684 10687 10691 10695 10697 10700 10703 10706
10455 10453 10450 10447 10444 10441 10437 10433 10430 10427 10425 10423 10422 10422 10421 10422 10423 10423 10423 10424 10425 10426 10427 10429 10431 10433 10435 10437 10440 10444 10447 10449 10452 10455 10458 10461 10465 10469 10473 10476 10481 10487 10493 10498 10503 10509 10513 10518 10525 10532 10540 10545 10551 10557 10563 10568 10573 10578 10583 10587 10591 10597 10602 10606 10611 10616 10621 10626 10632 10638 10644 10649 10654 10659 10664 10668 10672 10676 10679 10682 10686 10690 10692 10695 10698 10701
10455 10453 10450 10447 10444 10441 10438 10434 10431 10428 10425 10424 10423 10422 10422 10423 10424 10424 10425 10425 10426 10427 10429 10430 10432 10433 10435 10437 10439 10442 10446 10448 10451 10454 10457 10460 10463 10466 10470 10473 10477 10482 10487 10492 10497 10502 10506 10511 10516 10524 10531 10537 10543 10549 10555 10560 10566 10571 10575 10580 10585 10590 10595 10600 10606 10612 10616 10621 10626 10632 10638 10643 10649 10654 10659 10662 10666 10670 10674 10678 10681 10685 10688 10691 10693 10696
10455 10453 10450 10447 10445 10442 10439 10435 10432 10429 10426 10425 10423 10423 10423 10424 10424 10425 10426 10426 10428 10429 10430 10431 10432 10434 10436 10437 10439 10441 10443 10446 10449 10452 10456 10459 10462 10465 10468 10471 10474 10478 10482 10487 10491 10495 10500 10505 10510 10517 10523 10530 10535 10541 10547 10552 10557 10562 10566 10571 10577 10583 10588 10595 10602 10607 10612 10616 10621 10626 10633 10638 10644 10649 10653 10657 10661 10664 10669 10673 10676 10680 10684 10686 10687 10690
10454 10453 10450 10448 10446 10443 10440 10437 10434 10431 10428 10426 10424 10423 10423 10424 10424 10425 10427 10428 10429 10430 10431 10432 10433 10435 10437 10438 10439 10440 10442 10445 10448 10451 10455 10458 10461 10463 10466 10469 10472 10476 10479 10483 10487 10490 10494 10498 10504 10510 10517 10524 10530 10535 10540 10545 10549 10554 10558 10562 10568 10574 10581 10589 10596 10602 10607 10612 10616 10622 10628 10633 10639 10644 10647 10651 10655 10659 10663 10667 10671 10675 10679 10681 10683 10685
10455 10453 10451 10449 10447 10445 10442 10439 10436 10433 10430 10428 10425 10424 10424 10425 10425 10426 10428 10429 10431 10432 10433 10434 10435 10436 10438 10439 10440 10442 10445 10447 10449 10452 10455 10457 10459 10461 10464 10467 10471 10473 10477 10480 10483 10487 10490 10494 10499 10505 10511 10518 10524 10529 10534 10539 10543 10547 10551 10555 10561 10568 10575 10582 10590 10597 10602 10608 10613 10618 10624 10629 10634 10639 10643 10646 10650 10654 10658 10662 10665 10669 10672 10675 10678 10680
10455 10454 10452 10450 10449 10447 10444 10441 10438 10436 10433 10430 10428 10426 10425 10426 10427 10428 10429 10431 10433 10434 10435 10436 10437 10439 10440 10442 10443 10445 10448 10450 10451 10454 10456 10458 10459 10462 10464 10467 10470 10472 10475 10478 10481 10484 10488 10492 10496 10501 10506 10512 10518 10523 10528 10533 10538 10542 10545 10550 10555 10562 10568 10575 10584 10592 10597 10602 10609 10614 10619 10625 10630 10634 10638 10642 10645 10649 10653 10656 10659 10662 10665 10668 10671 10674
10456 10455 10453 10451 10450 10448 10446 10444 10441 10438 10436 10434 10432 10429 10428 10428 10429 10430 10431 10433 10436 10437 10438 10439 10441 10442 10444 10446 10448 10450 10453 10454 10455 10457 10458 10460 10461 10463 10465 10467 10470 10472 10474 10476 10479 10482 10485 10489 10493 10498 10503 10507 10512 10517 10523 10528 10533 10537 10540 10545 10550 10556 10562 10569 10578 10586 10592 10597 10603 10609 10614 10620 10625 10629 10633 10637 10640 10643 10647 10650 10654 10657 10660 10663 10665 10668
10457 10456 10455 10453 10452 10450 10448 10446 10444 10441 10439 10437 10435 10433 10432 10431 10431 10432 10434 10436 10438 10440 10441 10443 10445 10447 10449 10451 10453 10456 10457 10458 10460 10461 10462 10464 10464 10465 10467 10469 10471 10474 10475 10477 10479 10481 10483 10486 10490 10494 10499 10503 10507 10512 10517 10523 10529 10533 10536 10541 10545 10551 10557 10564 10572 10579 10586 10591 10598 10604 10609 10614 10619 10623 10627 10630 10634 10637 10641 10645 10648 10651 10654 10657 10660 10662
10458 10457 10456 10455 10453 10452 10451 10449 10447 10445 10443 10441 10439 10437 10436 10435 10434 10434 10435 10438 10440 10443 10445 10446 10448 10451 10453 10455 10457 10458 10458 10459 10461 10462 10463 10464 10465 10466 10468 10470 10471 10473 10475 10476 10478 10480 10482 10484 10487 10491 10495 10499 10503 10507 10513 10518 10523 10528 10532 10536 10541 10546 10552 10559 10566 10573 10579 10586 10592 10599 10603 10608 10612 10617 10620 10624 10628 10631 10634 10638 10641 10645 10648 10651 10654 10656
10459 10458 10457 10456 10455 10454 10453 10452 10450 10448 10446 10445 10443 10441 10440 10439 10438 10437 10438 10440 10443 10445 10447 10449 10451 10453 10454 10456 10456 10457 10458 10459 10460 10461 10462 10464 10466 10467 10469 10470 10470 10470 10471 10472 10475 10477 10479 10482 10485 10488 10492 10496 10499 10504 10508 10513 10518 10523 10527 10531 10536 10541 10547 10553 10560 10567 10573 10580 10586 10592 10597 10602 10606 10610 10614 10618 10621 10624 10628 10631 10634 10638 10641 10645 10648 10650
10460 10459 10458 10458 10457 10456 10456 10455 10453 10451 10450 10448 10447 10446 10444 10443 10443 10442 10442 10444 10446 10448 10449 10450 10452 10453 10454 10455 10456 10458 10459 10460 10461 10462 10463 10464 10465 10467 10468 10468 10468 10468 10468 10469 10471 10473 10476 10479 10481 10485 10489 10492 10496 10501 10505 10509 10514 10518 10522 10526 10531 10536 10541 10546 10554 10561 10567 10573 10579 10584 10590 10595 10599 10604 10607 10611 10614 10618 10621 10624 10627 10631 10634 10638 10642 10645
10460 10460 10459 10459 10458 10458 10458 10457 10456 10454 10453 10452 10451 10450 10449 10448 10448 10448 10448 10449 10450 10451 10452 10452 10453 10454 10455 10456 10458 10459 10460 10461 10462 10462 10463 10464 10465 10466 10467 10467 10467 10466 10466 10466 10468 10470 10473 10475 10478 10481 10484 10488 10492 10496 10501 10505 10509 10514 10518 10522 10526 10530 10535 10541 10547 10555 10561 10567 10572 10578 10583 10588 10592 10596 10600 10604 10607 10611 10614 10618 10621 10624 10628 10631 10635 10638
10460 10460 10460 10460 10460 10459 10459 10459 10458 10457 10456 10456 10455 10454 10453 10453 10453 10452 10453 10453 10454 10455 10455 10456 10456 10457 10458 10459 10460 10460 10461 10462 10462 10463 10463 10464 10464 10465 10466 10466 10467 10467 10466 10466 10467 10468 10470 10472 10474 10477 10480 10483 10487 10491 10496 10500 10504 10509 10514 10518 10521 10525 10530 10535 10541 10548 10554 10560 10566 10571 10576 10581 10586 10589 10592 10596 10600 10604 10607 10611 10614 10617 10621 10624 10628 10632
10460 10461 10460 10461 10461 10461 10460 10460 10460 10459 10459 10458 10458 10458 10457 10457 10457 10457 10457 10457 10457 10458 10458 10459 10459 10459 10460 10461 10461 10461 10462 10462 10462 10463 10463 10463 10464 10464 10465 10466 10466 10467 10467 10467 10467 10468 10469 10470 10472 10473 10475 10478 10482 10486 10490 10495 10499 10504 10508 10512 10517 10521 10525 10529 10535 10541 10547 10553 10559 10564 10569 10575 10579 10581 10585 10588 10592 10596 10600 10603 10607 10610 10614 10618 10621 10625
10460 10461 10461 10461 10461 10461 10462 10462 10462 10461 10461 10461 10460 10460 10460 10460 10460 10460 10460 10460 10461 10461 10461 10461 10462 10462 10462 10463 10463 10463 10463 10463 10463 10463 10463 10463 10464 10464 10464 10465 10466 10466 10467 10467 10467 10468 10468 10469 10470 10471 10472 10475 10477 10481 10485 10490 10495 10499 10503 10507 10511 10515 10520 10524 10529 10534 10540 10546 10551 10556 10561 10567 10571 10575 10578 10581 10585 10589 10592 10596 10600 10603 10607 10611 10614 10617
10460 10460 10461 10461 10462 10462 10462 10463 10463 10463 10463 10463 10463 10463 10463 10463 10463 10463 10463 10463 10463 10463 10464 10464 10464 10465 10465 10465 10465 10465 10465 10465 10465 10465 10465 10465 10464 10464 10464 10464 10465 10465 10466 10466 10467 10468 10468 10469 10469 10470 10471 10472 10474 10477 10481 10485 10490 10495 10499 10503 10507 10511 10515 10518 10523 10528 10533 10538 10544 10549 10554 10559 10564 10568 10572 10575 10579 10582 10585 10589 10593 10596 10600 10604 10607 10610
10459 10460 10460 10461 10462 10463 10463 10463 10464 10464 10464 10465 10465 10465 10465 10465 10465 10465 10465 10465 10466 10466 10466 10466 10466 10466 10466 10466 10466 10466 10466 10467 10467 10467 10467 10466 10466 10465 10465 10465 10465 10465 10465 10466 10467 10468 10468 10469 10469 10470 10471 10472 10473 10475 10478 10481 10485 10490 10495 10499 10503 10506 10510 10513 10517 10521 10526 10532 10538 10543 10548 10552 10557 10562 10566 10569 10572 10575 10578 10582 10585 10589 10592 10597 10600 10603
10459 10460 10460 10461 10462 10463 10463 10464 10464 10465 10465 10466 10466 10466 10466 10466 10466 10467 10467 10467 10467 10467 10468 10468 10468 10468 10468 10468 10468 10468 10468 10468 10468 10468 10468 10468 10467 10467 10467 10467 10466 10466 10467 10467 10467 10467 10468 10469 10469 10470 10471 10472 10473 10474 10476 10478 10482 10485 10490 10494 10498 10501 10504 10508 10511 10516 10520 10525 10531 10536 10542 10546 10550 10555 10559 10563 10566 10569 10572 10575 10578 10581 10585 10590 10593 10596
10458 10459 10460 10461 10462 10463 10463 10464 10465 10466 10466 10467 10467 10467 10467 10467 10468 10468 10468 10468 10468 10469 10469 10469 10469 10469 10470 10470 10469 10469 10469 10469 10469 10469 10469 10469 10468 10468 10468 10468 10468 10468 10468 10468 10468 10468 10468 10468 10469 10470 10471 10472 10473 10474 10475 10477 10479 10482 10485 10488 10492 10495 10498 10501 10505 10508 10513 10517 10522 10528 10533 10538 10542 10547 10551 10555 10559 10562 10564 10567 10570 10573 10577 10582 10586 10588
10458 10459 10460 10461 10462 10463 10464 10465 10465 10466 10467 10467 10468 10468 10468 10468 10468 10468 10468 10468 10469 10469 10469 10469 10470 10470 10470 10470 10470 10470 10470 10470 10470 10470 10470 10470 10469 10469 10469 10468 10468 10468 10468 10468 10468 10468 10468 10469 10469 10470 10470 10471 10472 10473 10474 10476 10477 10479 10481 10483 10486 10489 10491 10494 10497 10500 10504 10508 10513 10518 10523 10529 10534 10538 10542 10546 10550 10554 10556 10559 10561 10565 10569 10573 10577 10580
10456 10458 10460 10461 10462 10463 10464 10465 10466 10466 10467 10467 10468 10469 10469 10469 10469 10469 10469 10469 10469 10469 10469 10469 10469 10470 10470 10470 10470 10470 10470 10470 10470 10470 10470 10470 10470 10470 10469 10469 10469 10469 10468 10468 10468 10468 10468 10469 10469 10469 10470 10470 10471 10472 10473 10474 10475 10476 10478 10479 10481 10483 10486 10488 10491 10493 10496 10500 10504 10508 10513 10519 10524 10529 10533 10537 10541 10544 10547 10550 10554 10557 10560 10564 10568 10571
10455 10457 10459 10460 10461 10462 10464 10465 10466 10466 10467 10467 10468 10468 10468 10468 10468 10468 10468 10468 10468 10468 10468 10469 10469 10469 10469 10469 10469 10469 10470 10470 10470 10470 10470 10470 10470 10469 10469 10469 10469 10469 10468 10468 10468 10468 10468 10468 10468 10469 10469 10469 10469 10470 10471 10471 10472 10473 10475 10476 10477 10478 10480 10482 10485 10487 10489 10492 10495 10499 10504 10509 10514 10519 10524 10528 10532 10535 10538 10542 10545 10548 10551 10555 10559 10562
10455 10457 10458 10460 10461 10462 10463 10465 10466 10466 10467 10467 10468 10468 10468 10468 10467 10467 10467 10467 10467 10467 10468 10468 10468 10468 10468 10468 10469 10469 10469 10469 10469 10469 10469 10469 10469 10468 10468 10468 10468 10468 10468 10467 10467 10467 10467 10467 10467 10468 10468 10468 10468 10468 10468 10469 10469 10470 10471 10472 10473 10474 10475 10477 10479 10481 10483 10486 10489 10492 10496 10500 10505 10509 10514 10518 10522 10525 10529 10533 10536 10539 10542 10546 10549 10553
10456 10457 10459 10460 10461 10462 10464 10464 10465 10466 10466 10467 10467 10467 10467 10467 10467 10466 10466 10466 10466 10467 10467 10467 10467 10467 10467 10467 10467 10467 10468 10468 10468 10468 10468 10468 10468 10467 10467 10467 10467 10467 10466 10466 10466 10466 10465 10465 10466 10465 10465 10465 10465 10466 10466 10466 10466 10467 10468 10468 10469 10470 10471 10472 10474 10476 10478 10480 10482 10485 10488 10492 10496 10500 10504 10508 10512 10515 10519 10523 10526 10529 10533 10536 10540 10543
10458 10459 10460 10461 10462 10463 10464 10464 10465 10466 10466 10466 10467 10467 10467 10467 10466 10466 10466 10466 10466 10466 10466 10466 10466 10466 10466 10466 10466 10467 10467 10467 10466 10466 10466 10466 10466 10466 10466 10465 10465 10465 10465 10464 10464 10464 10464 10464 10464 10463 10463 10463 10463 10463 10463 10463 10464 10464 10464 10465 10465 10466 10467 10468 10469 10470 10472 10474 10476 10478 10481 10484 10487 10491 10495 10498 10502 10506 10509 10513 10516 10520 10523 10526 10530 10533
10460 10461 10462 10462 10463 10464 10464 10465 10466 10466 10467 10467 10467 10468 10468 10468 10468 10468 10468 10468 10467 10467 10467 10467 10467 10467 10467 10467 10467 10466 10466 10466 10466 10466 10465 10465 10465 10464 10464 10464 10463 10463 10463 10462 10462 10462 10462 10462 10461 10461 10461 10460 10460 10460 10460 10460 10460 10461 10461 10461 10462 10462 10463 10464 10465 10465 10466 10468 10470 10471 10474 10476 10479 10483 10486 10489 10492 10495 10499 10502 10506 10509 10513 10516 10519 10522
10463 10463 10464 10464 10465 10466 10467 10467 10468 10468 10469 10469 10469 10470 10470 10470 10470 10470 10470 10469 10469 10469 10469 10469 10469 10468 10468 10467 10467 10467 10466 10466 10466 10466 10465 10465 10464 10464 10463 10463 10462 10462 10461 10461 10460 10460 10460 10459 10459 10458 10457 10457 10457 10457 10457 10457 10457 10457 10457 10457 10458 10458 10459 10459 10460 10461 10462 10463 10464 10466 10467 10469 10472 10474 10477 10480 10482 10485 10488 10492 10495 10499 10502 10505 10508 10511
10467 10467 10467 10468 10468 10469 10469 10470 10470 10470 10471 10471 10472 10472 10472 10472 10472 10471 10471 10471 10471 10471 10470 10470 10470 10469 10468 10468 10467 10467 10467 10467 10466 10466 10465 10465 10464 10464 10463 10463 10462 10461 10461 10460 10460 10459 10458 10457 10456 10456 10455 10454 10453 10453 10453 10453 10453 10452 10453 10453 10453 10454 10454 10455 10455 10456 10457 10458 10459 10460 10461 10463 10464 10466 10469 10471 10473 10475 10478 10481 10484 10488 10491 10495 10498 10500
10471 10471 10471 10471 10472 10472 10472 10472 10473 10473 10473 10474 10474 10474 10474 10473 10473 10473 10472 10472 10472 10472 10472 10471 10471 10470 10469 10469 10468 10468 10467 10467 10467 10466 10466 10465 10464 10464 10463 10463 10462 10461 10461 10460 10459 10459 10458 10457 10456 10454 10453 10452 10451 10450 10450 10449 10449 10448 10448 10448 10448 10449 10449 10450 10450 10451 10451 10452 10453 10454 10455 10456 10458 10459 10461 10462 10464 10465 10467 10470 10473 10476 10480 10483 10486 10489
10474 10474 10474 10474 10474 10474 10475 10475 10475 10475 10475 10475 10475 10475 10474 10474 10474 10474 10474 10474 10473 10473 10473 10472 10472 10471 10470 10470 10469 10469 10468 10468 10467 10467 10466 10465 10465 10464 10463 10463 10462 10461 10461 10460 10459 10458 10457 10456 10455 10454 10453 10451 10450 10449 10448 10447 10446 10445 10444 10443 10443 10443 10443 10444 10444 10444 10445 10446 10446 10447 10449 10450 10451 10452 10453 10455 10456 10457 10458 10460 10462 10465 10468 10471 10474 10477
10477 10477 10477 10477 10477 10477 10477 10477 10476 10476 10476 10476 10475 10475 10475 10475 10475 10476 10476 10476 10475 10475 10475 10474 10473 10472 10472 10471 10470 10470 10469 10468 10467 10467 10466 10465 10465 10464 10463 10462 10461 10460 10459 10458 10457 10456 10455 10454 10453 10452 10451 10450 10449 10447 10446 10444 10443 10442 10441 10440 10439 10438 10438 10438 10438 10438 10438 10439 10439 10440 10441 10442 10443 10444 10445 10447 10448 10449 10450 10451 10452 10454 10457 10459 10462 10465